Weather History for Kinloss, United Kingdom

Change the Weather History Date:

Sunday, November 18, 2012

  Actual Average Record
Temperature  
Mean Temperature 39 °F -  
Max Temperature 43 °F 45 °F 60 °F (2003)
Min Temperature 35 °F 35 °F 19 °F (1998)
Degree Days  
Heating Degree Days 26    
Moisture  
Dew Point 31 °F    
Average Humidity 70    
Maximum Humidity 81    
Minimum Humidity 54    
Precipitation  
Precipitation 0.00 in 0.07 in - ()
Sea Level Pressure  
Sea Level Pressure 29.65 in    
Wind  
Wind Speed 9 mph ()    
Max Wind Speed 16 mph    
Max Gust Speed -    
Visibility 6.2 miles    
Events Rain    
Averages and records for this station are not official NWS values.
T = Trace of Precipitation, MM = Missing Value Source: Averaged Metar Reports

Daily Weather History Graph

Daily Weather History Graph

Search for Another Location

Airport:

Trip Planner

Search our weather history database for the weather conditions in past years. The results will help you decide how hot, cold, wet, or windy it might be!

Date:

Astronomy

Nov. 18, 2012 Rise Set
Actual Time 8:06 AM GMT 3:52 PM GMT
Civil Twilight 7:20 AM GMT 4:37 PM GMT
Nautical Twilight 6:32 AM GMT 5:26 PM GMT
Astronomical Twilight 5:46 AM GMT 6:12 PM GMT
Moon 12:12 PM GMT (11/18) 9:10 PM GMT (11/18)
Length of Visible Light 9h 17m
Length of Day
7h 45m
Waxing Crescent, 28% of the Moon is Illuminated
Nov 18
Waxing Crescent
Nov 20
First Quarter
Nov 28
Full
Dec 6
Last Quarter
Dec 13
New

Hourly Weather History & Observations

Time (GMT) Temp. Windchill Dew Point Humidity Pressure Visibility Wind Dir Wind Speed Gust Speed Precip Events Conditions
12:50 AM 37.4 °F 30.8 °F 30.2 °F 75% 29.56 in 6.2 mi SSW 9.2 mph - N/A   Unknown
1:50 AM 35.6 °F 29.2 °F 30.2 °F 81% 29.56 in 6.2 mi SSW 8.1 mph - N/A   Partly Cloudy
2:50 AM 36 °F - 30 °F 71% 29.60 in 37 mi SSW 9.2 mph - -  
2:50 AM 35.6 °F 28.6 °F 30.2 °F 81% 29.59 in 6.2 mi SSW 9.2 mph - N/A   Unknown
3:50 AM 37.4 °F 29.8 °F 30.2 °F 75% 29.59 in 6.2 mi SSW 11.5 mph - N/A   Unknown
4:50 AM 37.4 °F 30.3 °F 30.2 °F 75% 29.59 in 6.2 mi SSW 10.4 mph - N/A   Scattered Clouds
5:50 AM 37 °F - 30 °F 69% 29.63 in 34 mi SW 10.4 mph - -  
5:50 AM 37.4 °F 30.3 °F 30.2 °F 75% 29.62 in 6.2 mi SW 10.4 mph - N/A   Unknown
6:50 AM 35.6 °F 29.2 °F 30.2 °F 81% 29.62 in 6.2 mi SSW 8.1 mph - N/A   Unknown
7:50 AM 37.4 °F 29.8 °F 32.0 °F 81% 29.65 in 6.2 mi SW 11.5 mph - N/A   Unknown
8:50 AM 38 °F - 31 °F 68% 29.68 in 28 mi SSW 13.8 mph - -  
8:50 AM 39.2 °F 31.2 °F 32.0 °F 75% 29.65 in 6.2 mi SSW 13.8 mph - N/A   Unknown
9:50 AM 41.0 °F 33.5 °F 32.0 °F 70% 29.68 in 6.2 mi SW 13.8 mph - N/A   Unknown
10:50 AM 41.0 °F 32.8 °F 32.0 °F 70% 29.68 in 6.2 mi SW 16.1 mph - N/A   Unknown
11:50 AM 43 °F - 33 °F 57% 29.71 in 31 mi WSW 12.7 mph - -  
11:50 AM 42.8 °F 36.2 °F 33.8 °F 70% 29.68 in 6.2 mi WSW 12.7 mph - N/A   Unknown
12:50 PM 44.6 °F 38.8 °F 32.0 °F 61% 29.68 in 6.2 mi SW 11.5 mph - N/A   Unknown
1:50 PM 44.6 °F 38.4 °F 32.0 °F 61% 29.68 in 6.2 mi SW 12.7 mph - N/A   Unknown
2:50 PM 43 °F - 32 °F 54% 29.70 in 47 mi SW 12.7 mph - -  
2:50 PM 42.8 °F 36.2 °F 32.0 °F 66% 29.68 in 6.2 mi SW 12.7 mph - N/A   Unknown
3:50 PM 41.0 °F 35.8 °F 32.0 °F 70% 29.71 in 6.2 mi SSW 8.1 mph - N/A   Unknown
4:50 PM 39.2 °F 33.6 °F 32.0 °F 75% 29.71 in 6.2 mi SSW 8.1 mph - N/A   Partly Cloudy
5:50 PM 40 °F - 32 °F 65% 29.71 in 47 mi South 6.9 mph - -   Mostly Cloudy
5:50 PM 41.0 °F 36.4 °F 32.0 °F 70% 29.68 in 6.2 mi South 6.9 mph - N/A   Mostly Cloudy
6:50 PM 39.2 °F 37.0 °F 32.0 °F 75% 29.71 in 6.2 mi SW 3.5 mph - N/A   Partly Cloudy
7:50 PM 39.2 °F 35.9 °F 32.0 °F 75% 29.68 in 6.2 mi South 4.6 mph - N/A   Mostly Cloudy
8:50 PM 40 °F - 31 °F 60% 29.68 in 47 mi SSW 5.8 mph - -   Overcast
8:50 PM 39.2 °F 35.0 °F 30.2 °F 70% 29.68 in 6.2 mi SSW 5.8 mph - N/A   Overcast
9:50 PM 41.0 °F 35.8 °F 30.2 °F 65% 29.65 in - SSW 8.1 mph - N/A   Overcast
10:50 PM 41.0 °F 39.0 °F 30.2 °F 65% 29.62 in 6.2 mi SSW 3.5 mph - N/A   Overcast
11:50 PM 40 °F - 32 °F 64% 29.63 in 22 mi East 6.9 mph - - Rain Light Rain Showers
11:50 PM 39.2 °F 34.2 °F 32.0 °F 75% 29.62 in 6.2 mi East 6.9 mph - N/A Rain Light Rain Showers